Regional Weather Roundup
Issued by NWS Green Bay, WI

Home | Current Version | Previous Version | Graphics & Text | Print | Product List | Glossary Off
Versions: 1 2 3 4 5 6 7 8 9 10 11 12 13 14 15 16 17 18 19 20 21 22 23 24 25 26 27 28 29 30 31 32 33 34 35 36 37 38 39 40 41 42 43 44 45 46 47 48 49 50

000
ASUS43 KGRB 281411
RWRGRB

NORTH-CENTRAL AND NORTHEAST WISCONSIN REGIONAL WEATHER ROUNDUP
NATIONAL WEATHER SERVICE GREEN BAY WI
900 AM CDT SUN AUG 28 2016

WIZ005-009-010>012-018-019-281500-
NORTH CENTRAL WISCONSIN

CITY           SKY/WX    TMP DP  RH WIND       PRES   REMARKS
IRONWOOD       CLOUDY    63  60  90 VRB3      30.19R
MANITOWISH WTR CLOUDY    63  61  96 CALM      30.21R
ARBOR VITAE    CLOUDY    63  60  88 W6        30.22R
EAGLE RIVER    CLOUDY    63  59  87 W5        30.21R
LAND O LAKES   PTSUNNY   64  59  84 NW3       30.21S
RHINELANDER    CLOUDY    64  61  90 W5        30.23R
PHILLIPS       CLOUDY    62  59  89 CALM      30.20S
ANTIGO         PTSUNNY   64  61  90 NW3       30.22R
TOMAHAWK       CLOUDY    63  58  86 N5        30.22R
MERRILL        CLOUDY    65  62  91 CALM      30.22S
$$

WIZ013-073-281500-
NORTHEAST WISCONSIN

CITY           SKY/WX    TMP DP  RH WIND       PRES   REMARKS
IRON MOUNTAIN  MOSUNNY   68  58  70 NW6       30.17R
MARINETTE        N/A    N/A N/A N/A MISG        N/A
OCONTO         CLOUDY    66  63  90 W6        30.19R
$$

WIZ017-030-035>037-045-281500-
CENTRAL WISCONSIN

CITY           SKY/WX    TMP DP  RH WIND       PRES   REMARKS
MEDFORD        CLOUDY    64  64 100 N5        30.21R
WAUSAU         PTSUNNY   65  59  81 NW6       30.20R
MOSINEE        MOSUNNY   63  63 100 CALM      30.22R
MARSHFIELD     PTSUNNY   67  61  81 SE3       30.20R
WISC RAPIDS    CLOUDY    68  64  87 SW3       30.23R
STEVENS POINT  CLOUDY    61  60  97 CALM      30.23R
WAUPACA        PTSUNNY   68  68  99 CALM      30.21R
SHAWANO        SUNNY     67  64  90 CALM      30.21R
CLINTONVILLE   CLOUDY    63  63 100 W5        30.21R
WAUTOMA        MOSUNNY   68  65  90 CALM      30.22R
$$

WIZ038-039-048-051-281500-
FOX VALLEY

CITY           SKY/WX    TMP DP  RH WIND       PRES   REMARKS
NWS GREEN BAY  CLOUDY    66  66 100 W5        30.20R
APPLETON       PTSUNNY   66  66 100 W5        30.20R
OSHKOSH        SUNNY     70  63  78 W3        30.20S
FOND DU LAC    SUNNY     68  65  90 S6        30.21S
$$

WIZ022-050-052-281500-
EAST CENTRAL WISCONSIN

CITY           SKY/WX    TMP DP  RH WIND       PRES   REMARKS
EPHRAIM        FAIR      68  65  89 SW3       30.17S
WASHINGTON ISL NOT AVBL
STURGEON BAY   PTSUNNY   67  64  90 SW8       30.19S
MANITOWOC      SUNNY     70  63  78 W3        30.21R
SHEBOYGAN      SUNNY     70  63  78 NW3       30.21R
$$

LMZ563-521-522-541>543-281500-
LAKESHORE

STATION/POSITION TIME  TEMP    WIND        PRES    VSBY  WAVE
                       AIR SEA DIR/SP/G                  HT/PER
                 (UTC) (F)     (DEG/KT/KT) (MB)    (MI)  (FT/S)
SHEBOYGAN LKSHOR 1400   69     130/  1/  1 1022.5R
KEWAUNEE LKSHORE 1300   66     280/  3/  5 1021.6R
NORTHPORT PIER   1300   69     280/  6/ 10 1021.3R
N MID LAKE BUOY  1350   67 70  250/ 10/ 12 1020.8R         1/ 3
S GREEN BAY BUOY 1300   67 71  250/ 10/ 10 1021.5R
SISTER BAY LKSHO 1322   73     300/ 12/ 13   N/A
CHAMBERS ISLAND  1300   68     210/  5/  9 1021.7R
MENOMINEE LKSHOR 1300   65     240/  7/  9 1020.8R
$$



USA.gov is the U.S. government's official web portal to all federal, state and local government web resources and services.